Printer-friendly version

IAU Minor Planet Center

Minor Planet Center

(57915) 2002 EB110

Orbital Elements

The following orbital elements are taken from MPO 62206
 (57915) 2002 EB110
Epoch 2007 Oct. 27.0 TT = JDT 2454400.5                 MPC
M 197.89856              (2000.0)            P               Q
n   0.08299174     Peri.  129.95410     -0.85125873     -0.51778371
a   5.2053044      Node    19.34038     +0.36771319     -0.70442950
e   0.0376206      Incl.   14.90722     +0.37436023     -0.48546792
P  11.9            H   12.5           G   0.15           U   1
From 48 observations at 6 oppositions, 1996-2003, mean residual 0".67.
An explanation of the orbital elements is available.

These orbital elements are also available in forms suitable for loading into a number of popular planetarium-type software programs.


Ephemeris

The following ephemeris is at intervals of five days. A daily ephemeris covering the same time interval is also available.

Personalized ephemerides for this (and other) objects may be generated using the Minor Planet & Comet Ephemeris Service.

Date    TT    R. A. (2000) Decl.     Delta      r     Elong.  Phase     V
2009 10 26    02 41.84   +23 31.6    4.283    5.251   165.3     2.8    19.6
2009 10 31    02 38.93   +23 27.5    4.270    5.250   169.7     1.9    19.5
2009 11 05    02 35.97   +23 22.2    4.264    5.248   172.2     1.5    19.4
2009 11 10    02 33.02   +23 15.9    4.266    5.247   171.1     1.7    19.5
2009 11 15    02 30.13   +23 08.7    4.276    5.245   167.2     2.4    19.5
2009 11 20    02 27.35   +23 00.9    4.294    5.244   162.4     3.3    19.6
2009 11 25    02 24.74   +22 52.9    4.319    5.243   157.2     4.2    19.7
2009 11 30    02 22.34   +22 44.7    4.351    5.241   151.9     5.1    19.7
2009 12 05    02 20.18   +22 36.7    4.390    5.240   146.5     6.0    19.8
2009 12 10    02 18.30   +22 29.2    4.435    5.238   141.1     6.8    19.8
2009 12 15    02 16.71   +22 22.3    4.487    5.237   135.8     7.5    19.9
2009 12 20    02 15.46   +22 16.3    4.543    5.236   130.5     8.2    20.0
2009 12 25    02 14.54   +22 11.4    4.605    5.234   125.2     8.8    20.0
2009 12 30    02 13.96   +22 07.7    4.670    5.233   120.1     9.4    20.1
2010 01 04    02 13.74   +22 05.3    4.740    5.232   115.0     9.8    20.1
2010 01 09    02 13.86   +22 04.2    4.812    5.230   110.0    10.2    20.2
2010 01 14    02 14.32   +22 04.7    4.886    5.229   105.0    10.5    20.2
2010 01 19    02 15.12   +22 06.6    4.963    5.227   100.2    10.7    20.2
2010 01 24    02 16.24   +22 10.1    5.040    5.226    95.4    10.8    20.3
2010 01 29    02 17.68   +22 15.0    5.118    5.225    90.7    10.9    20.3
2010 02 03    02 19.41   +22 21.4    5.197    5.223    86.1    10.9    20.3
2010 02 08    02 21.43   +22 29.1    5.274    5.222    81.6    10.8    20.4
2010 02 13    02 23.72   +22 38.2    5.351    5.220    77.1    10.6    20.4
2010 02 18    02 26.26   +22 48.6    5.426    5.219    72.7    10.4    20.4
2010 02 23    02 29.05   +23 00.1    5.500    5.217    68.4    10.2    20.4
2010 02 28    02 32.07   +23 12.8    5.571    5.216    64.2     9.8    20.5
2010 03 05    02 35.29   +23 26.4    5.640    5.215    60.0     9.5    20.5
2010 03 10    02 38.71   +23 41.0    5.705    5.213    55.9     9.1    20.5
2010 03 15    02 42.31   +23 56.4    5.768    5.212    51.8     8.6    20.5
2010 03 20    02 46.08   +24 12.6    5.827    5.210    47.8     8.1    20.5
2010 03 25    02 50.01   +24 29.4    5.882    5.209    43.8     7.6    20.5
2010 03 30    02 54.09   +24 46.8    5.933    5.208    40.0     7.1    20.5
2010 04 04    02 58.29   +25 04.7    5.980    5.206    36.1     6.5    20.5

2010 07 03    04 24.08   +30 44.5    6.007    5.181    32.7     6.1    20.4
2010 07 08    04 28.73   +31 02.1    5.964    5.179    36.3     6.7    20.5
2010 07 13    04 33.30   +31 19.6    5.916    5.178    39.9     7.2    20.5
2010 07 18    04 37.76   +31 36.9    5.864    5.176    43.6     7.8    20.5
2010 07 23    04 42.11   +31 54.0    5.809    5.175    47.3     8.3    20.5
2010 07 28    04 46.32   +32 11.0    5.750    5.174    51.1     8.8    20.5
2010 08 02    04 50.38   +32 27.9    5.688    5.172    54.9     9.2    20.5
2010 08 07    04 54.28   +32 44.7    5.623    5.171    58.8     9.7    20.5
2010 08 12    04 58.00   +33 01.4    5.555    5.169    62.7    10.0    20.4
2010 08 17    05 01.51   +33 18.1    5.485    5.168    66.7    10.4    20.4
2010 08 22    05 04.81   +33 34.8    5.412    5.167    70.7    10.6    20.4
2010 08 27    05 07.87   +33 51.5    5.338    5.165    74.8    10.9    20.4
2010 09 01    05 10.68   +34 08.2    5.262    5.164    78.9    11.1    20.4
2010 09 06    05 13.21   +34 25.0    5.185    5.163    83.1    11.2    20.3
2010 09 11    05 15.45   +34 41.9    5.108    5.161    87.4    11.2    20.3
2010 09 16    05 17.36   +34 58.8    5.030    5.160    91.8    11.2    20.3
2010 09 21    05 18.94   +35 15.7    4.953    5.158    96.2    11.2    20.2
2010 09 26    05 20.16   +35 32.5    4.876    5.157   100.7    11.0    20.2
2010 10 01    05 21.02   +35 49.3    4.801    5.156   105.3    10.8    20.1
2010 10 06    05 21.49   +36 06.0    4.727    5.154   109.9    10.5    20.1
2010 10 11    05 21.55   +36 22.4    4.656    5.153   114.6    10.1    20.1
2010 10 16    05 21.21   +36 38.4    4.588    5.151   119.4     9.7    20.0
2010 10 21    05 20.46   +36 53.9    4.523    5.150   124.3     9.2    20.0
2010 10 26    05 19.30   +37 08.7    4.462    5.149   129.2     8.6    19.9
2010 10 31    05 17.74   +37 22.6    4.406    5.147   134.2     8.0    19.8
2010 11 05    05 15.79   +37 35.4    4.355    5.146   139.1     7.2    19.8
2010 11 10    05 13.48   +37 46.8    4.310    5.145   144.0     6.5    19.7
2010 11 15    05 10.85   +37 56.8    4.271    5.143   148.9     5.7    19.7
2010 11 20    05 07.94   +38 05.0    4.239    5.142   153.5     4.9    19.6
2010 11 25    05 04.79   +38 11.4    4.213    5.141   157.8     4.2    19.6
2010 11 30    05 01.47   +38 15.8    4.195    5.139   161.3     3.5    19.5

Valid HTML 4.01!